Location: Bilsen
(53.7722°N, 9.8765°E)
Time: 07:50:38
(UTC+00:00)

STARLINK-1140 - Pass Details

Date: 18 February 2020
Orbit: 548 x 550 km, 53.0° (Epoch: 01 April)

Event Time Altitude Azimuth Distance (km) Brightness Sun altitude
Exits shadow 03:09:34 24° 89° (E) 1,132 5.7 -30.5°
Drops below altitude 10° 03:11:21 10° 83° (E) 1,803 7.1 -30.3°
Enters shadow 04:09:30 -66° 267° (W) 12,267 10.4 -22.0°
Maximum altitude 04:46:41 81° 183° (S) 552 3.5 -16.6°
